Preview of NWS' New Version of Forecast
This preview is not operational and should not be used for support decisions.

Regional Weather Roundup (RWR)

Issued by National Weather Service (NWS)

                            
000
ASUS45 KBOI 161910
RWRID 

IDAHO REGIONAL WEATHER ROUNDUP
NATIONAL WEATHER SERVICE BOISE ID
100 PM MDT MON SEP 16 2019

NOTE: "FAIR" INDICATES FEW OR NO CLOUDS BELOW 12000 FEET
WITH NO SIGNIFICANT WEATHER AND/OR OBSTRUCTIONS TO VISIBILITY

IDZ012-014-162000-
SOUTHWEST IDAHO

  
CITY           SKY/WX    TMP DP  RH WIND       PRES   REMARKS
BOISE          CLOUDY    72  45  37 NW12      29.73F                  
CALDWELL       CLOUDY    67  47  48 NW8       29.75S                  
MOUNTAIN HOME  MOSUNNY   77  29  17 CALM      29.72F                  
$$

IDZ016-017-162000-
SOUTHCENTRAL IDAHO

  
CITY           SKY/WX    TMP DP  RH WIND       PRES   REMARKS
BURLEY         SUNNY     77  27  15 VRB6      29.77F                  
JEROME         PTSUNNY   76  32  20 NW5       29.80F                  
TWIN FALLS     PTSUNNY   76  24  14 NW12      29.80F                  
$$

IDZ019>023-162000-
SOUTHEAST IDAHO

  
CITY           SKY/WX    TMP DP  RH WIND       PRES   REMARKS
IDAHO FALLS    CLOUDY    78  44  29 VRB6      29.84F                  
POCATELLO      CLOUDY    82  42  24 S24G33    29.81F                  
REXBURG        CLOUDY    76  42  29 SW15      29.85F                  
$$

IDZ006-010-011-018-031-032-162000-
CENTRAL IDAHO MOUNTAINS

  
CITY           SKY/WX    TMP DP  RH WIND       PRES   REMARKS
MCCALL         CLOUDY    65  31  28 S10       29.80F                  
HAILEY         SUNNY     70  36  28 SE9       29.86F                  
STANLEY          N/A     68  16  13 S13G28    29.88F                  
SALMON         SUNNY     74  39  28 N8        29.70F                  
CHALLIS        MOSUNNY   80  24  12 S13G20    29.75F                  
$$

IDZ002-004-006-007-026-162000-
NORTHERN IDAHO

  
CITY           SKY/WX    TMP DP  RH WIND       PRES   REMARKS
LEWISTON       CLOUDY    63  46  54 NW13      29.80R                  
LOWELL           N/A     66  50  56 CALM      29.73F                  
COEUR D'ALENE  CLOUDY    59  46  62 W15       29.80R                  
MULLAN PASS    PTSUNNY   57  43  59 CALM      29.83F                  
$$